sat.trackr.live / text

‹ back to catalog

UNKNOWN

NORAD 84188

UNKNOWN UNKNOWN UNKNOWN

§ Identity

Operator
Country
Launch date
Launch site
Launch vehicle
Mass (kg)
RCS (m²)

External: N2YO · Heavens-Above

§ Orbital elements

Epoch: 2026-05-27T22:33:57.723552Z

Period
169.17 min
Inclination
65.1309°
Eccentricity
0.3291825
Mean motion
8.51195313 rev/d
Perigee alt
418.9 km
Apogee alt
7,089.8 km
Semi-major
10,132.5 km
B*
2.3953e-1
RAAN
99.9710°
Arg perigee
358.3090°
Mean anomaly
0.8489°
Rev number
5,462

§ Raw data

UNKNOWN1 84188U          26147.94025143  .00721688  00000+0  23953+0 0  99992 84188  65.1309  99.9710 3291825 358.3090   0.8489  8.51195313 54620

JSON: /api/v1/satellites/84188 · /tle

For live sub-satellite position, see the globe view (requires WebGL).

§ Visibility from observer

Set your observer location to see the next 7 days of passes ≥ 10°. The values pass through the URL so the page stays shareable.

No JS? Fill the form by hand. The geolocation button needs JavaScript.